2022-098J (53452 NORAD) Tracking and Keplerian Element Data

This shows tracking and keplerian element data for the satellite.

Feedback or suggestion? Click here.




ElementValue
Catalog53452
Name2022-098J
Epoch Orbit722
Epoch Day270.18155757
Epoch Year2022
RAAN5.6776
Inclination97.5285
Eccentricity0.0011296
Argument of Perigee105.1928
Mean Anonmoly342.9318
Mean Motion15.0987668
Decay Rate3.891E-05
L11 53452U 22098J 22270.18155757 .00003891 00000+0 24385-3 0 9997
L22 53452 97.5285 5.6776 0011296 105.1928 342.9318 15.09876680 7224

Live tracking and technical data element details for 2022-098J (NORAD 53452). 2022-098J can be tracked NOW for your location showing map with azimuth and elevation plus other details from your city location.

Track the satellite on the map from your city or location and see movement details for azimuth, elevation, latitude, longitude, range, height, and movement on the map or in text.







IsCatalogInMostPopularTable: catalog: 53452, numindb: 6
Update: records affected: 1



GetName: 53452 2022-098J

Hit Count: updated at: Thu, 29 Sep 2022 11:52:10 GMT